ICE301 EKVG-BIKF

Flight info

Callsign ICE301
Flight time 1h 15m
Altitude 38000
Route MY DCT ING DCT NASBU NASBU4K
Aircraft B38M/M-SDE1FGHILORVWXY/HB1

Departure

Time 2026-04-27 09:42
Airport Vágar Airport (EKVG)

Arrival

Time 2026-04-27 10:57
Airport Keflavik International Airport (BIKF)
Time Latitude Longitude Altitude Speed Heading
2026-04-27 09:02 62.06711 -7.28033 297 ft 0 kts 76°
2026-04-27 09:34 62.06710 -7.28029 295 ft 1 kts 97°
2026-04-27 09:35 62.06695 -7.28020 294 ft 6 kts 181°
2026-04-27 09:35 62.06631 -7.28083 295 ft 12 kts 188°
2026-04-27 09:35 62.06565 -7.28097 293 ft 3 kts 191°
2026-04-27 09:36 62.06563 -7.28098 293 ft 2 kts 192°
2026-04-27 09:36 62.06509 -7.28141 290 ft 13 kts 207°
2026-04-27 09:37 62.06508 -7.28318 287 ft 17 kts 297°
2026-04-27 09:37 62.06568 -7.28565 286 ft 21 kts 298°
2026-04-27 09:37 62.06640 -7.28853 286 ft 23 kts 298°
2026-04-27 09:37 62.06695 -7.29076 281 ft 11 kts 296°
2026-04-27 09:38 62.06707 -7.29193 280 ft 7 kts 284°
2026-04-27 09:38 62.06716 -7.29220 278 ft 0 kts 342°
2026-04-27 09:38 62.06724 -7.29212 278 ft 2 kts 35°
2026-04-27 09:38 62.06723 -7.29187 281 ft 0 kts 117°
2026-04-27 09:41 62.06715 -7.29157 281 ft 20 kts 117°
2026-04-27 09:41 62.06496 -7.28273 290 ft 112 kts 118°
2026-04-27 09:41 62.06012 -7.26365 483 ft 167 kts 118°
2026-04-27 09:42 62.05425 -7.24040 1362 ft 189 kts 122°
2026-04-27 09:42 62.04515 -7.21910 2267 ft 204 kts 150°
2026-04-27 09:42 62.03085 -7.21342 2968 ft 225 kts 193°
2026-04-27 09:42 62.01706 -7.22994 3984 ft 233 kts 225°
2026-04-27 09:43 62.00714 -7.25815 5053 ft 245 kts 238°
2026-04-27 09:43 61.99867 -7.28990 6230 ft 248 kts 245°
2026-04-27 09:43 61.99264 -7.32461 7335 ft 253 kts 256°
2026-04-27 09:43 61.99051 -7.36202 8415 ft 258 kts 271°
2026-04-27 09:44 61.99317 -7.39992 9486 ft 263 kts 287°
2026-04-27 09:44 62.00083 -7.43552 10524 ft 268 kts 303°
2026-04-27 09:44 62.01304 -7.46578 11513 ft 273 kts 317°
2026-04-27 09:44 62.02898 -7.48992 12162 ft 292 kts 328°
2026-04-27 09:45 62.04684 -7.51223 12686 ft 311 kts 328°
2026-04-27 09:45 62.06611 -7.53641 13371 ft 324 kts 328°
2026-04-27 09:45 62.08570 -7.56100 14274 ft 327 kts 328°
2026-04-27 09:45 62.10392 -7.59016 15134 ft 328 kts 311°
2026-04-27 09:46 62.11266 -7.61629 15740 ft 328 kts 299°
2026-04-27 09:46 62.12308 -7.65992 16584 ft 332 kts 298°
2026-04-27 09:46 62.13356 -7.70402 17423 ft 334 kts 298°
2026-04-27 09:46 62.14735 -7.76301 18520 ft 337 kts 298°
2026-04-27 09:47 62.15778 -7.80809 19209 ft 340 kts 298°
2026-04-27 09:47 62.16825 -7.85366 19851 ft 343 kts 298°
2026-04-27 09:47 62.17522 -7.88404 20270 ft 345 kts 298°
2026-04-27 09:47 62.18600 -7.93115 20919 ft 349 kts 298°
2026-04-27 09:48 62.19655 -7.97737 21539 ft 352 kts 298°
2026-04-27 09:48 62.20730 -8.02459 22166 ft 355 kts 299°
2026-04-27 09:48 62.21817 -8.07240 22781 ft 358 kts 299°
2026-04-27 09:48 62.22911 -8.12070 23390 ft 362 kts 299°
2026-04-27 09:49 62.24016 -8.16956 23965 ft 365 kts 299°
2026-04-27 09:49 62.25125 -8.21869 24466 ft 367 kts 299°
2026-04-27 09:49 62.26239 -8.26815 25029 ft 368 kts 299°
2026-04-27 09:49 62.27351 -8.31766 25568 ft 370 kts 299°
2026-04-27 09:50 62.28468 -8.36754 26097 ft 371 kts 299°
2026-04-27 09:50 62.29587 -8.41759 26622 ft 372 kts 299°
2026-04-27 09:50 62.30709 -8.46786 27135 ft 374 kts 299°
2026-04-27 09:50 62.31832 -8.51836 27636 ft 375 kts 299°
2026-04-27 09:51 62.32959 -8.56913 28132 ft 376 kts 299°
2026-04-27 09:51 62.34088 -8.62002 28603 ft 378 kts 299°
2026-04-27 09:51 62.35219 -8.67125 29077 ft 380 kts 299°
2026-04-27 09:51 62.36352 -8.72268 29543 ft 381 kts 299°
2026-04-27 09:52 62.37489 -8.77442 30000 ft 383 kts 299°
2026-04-27 09:52 62.38629 -8.82643 30384 ft 385 kts 298°
2026-04-27 09:52 62.39777 -8.87887 30692 ft 388 kts 298°
2026-04-27 09:52 62.40928 -8.93163 31070 ft 389 kts 298°
2026-04-27 09:53 62.42065 -8.98386 31443 ft 390 kts 298°
2026-04-27 09:53 62.43220 -9.03704 31811 ft 392 kts 298°
2026-04-27 09:53 62.44376 -9.09042 32168 ft 393 kts 298°
2026-04-27 09:53 62.45533 -9.14400 32515 ft 395 kts 298°
2026-04-27 09:54 62.46693 -9.19780 32913 ft 395 kts 298°
2026-04-27 09:54 62.47846 -9.25147 33413 ft 392 kts 298°
2026-04-27 09:54 62.48989 -9.30476 33960 ft 389 kts 299°
2026-04-27 09:54 62.50119 -9.35762 34457 ft 386 kts 298°
2026-04-27 09:55 62.51259 -9.41109 34810 ft 387 kts 298°
2026-04-27 09:55 62.52386 -9.46408 35089 ft 388 kts 298°
2026-04-27 09:55 62.54631 -9.57002 35625 ft 391 kts 297°
2026-04-27 09:56 62.55766 -9.62375 35866 ft 393 kts 297°
2026-04-27 09:56 62.56904 -9.67780 36072 ft 396 kts 296°
2026-04-27 09:56 62.58050 -9.73232 36315 ft 397 kts 296°
2026-04-27 09:56 62.59195 -9.78699 36553 ft 399 kts 296°
2026-04-27 09:57 62.60343 -9.84191 36783 ft 401 kts 296°
2026-04-27 09:57 62.61493 -9.89715 37009 ft 402 kts 296°
2026-04-27 09:57 62.62663 -9.95339 37247 ft 404 kts 296°
2026-04-27 09:57 62.63818 -10.00915 37461 ft 405 kts 296°
2026-04-27 09:58 62.64972 -10.06499 37685 ft 407 kts 296°
2026-04-27 09:58 62.66132 -10.12123 37894 ft 408 kts 295°
2026-04-27 09:58 62.67293 -10.17769 38109 ft 409 kts 295°
2026-04-27 09:58 62.68456 -10.23446 38257 ft 411 kts 295°
2026-04-27 09:59 62.70771 -10.34784 38252 ft 413 kts 295°
2026-04-27 09:59 62.73135 -10.46427 38232 ft 421 kts 295°
2026-04-27 10:00 62.75492 -10.58100 38242 ft 420 kts 295°
2026-04-27 10:00 62.77817 -10.69681 38246 ft 419 kts 295°
2026-04-27 10:01 62.80147 -10.81355 38236 ft 420 kts 294°
2026-04-27 10:01 62.82472 -10.93070 38235 ft 420 kts 294°
2026-04-27 10:02 62.84785 -11.04796 38233 ft 420 kts 294°
2026-04-27 10:02 62.87090 -11.16542 38230 ft 420 kts 294°
2026-04-27 10:03 62.89369 -11.28230 38222 ft 419 kts 294°
2026-04-27 10:03 62.91622 -11.39850 38222 ft 411 kts 294°
2026-04-27 10:04 62.93846 -11.51386 38223 ft 411 kts 294°
2026-04-27 10:04 62.96064 -11.62957 38248 ft 411 kts 293°
2026-04-27 10:05 62.98267 -11.74517 38219 ft 409 kts 293°
2026-04-27 10:05 63.00459 -11.86084 38212 ft 409 kts 293°
2026-04-27 10:06 63.02641 -11.97665 38210 ft 409 kts 293°
2026-04-27 10:06 63.04796 -12.09173 38211 ft 409 kts 293°
2026-04-27 10:07 63.06945 -12.20716 38206 ft 402 kts 292°
2026-04-27 10:07 63.09056 -12.32119 38202 ft 402 kts 292°
2026-04-27 10:08 63.11159 -12.43549 38198 ft 402 kts 292°
2026-04-27 10:08 63.13239 -12.54917 38197 ft 402 kts 292°
2026-04-27 10:09 63.15323 -12.66369 38196 ft 402 kts 292°
2026-04-27 10:09 63.17400 -12.77856 38222 ft 401 kts 291°
2026-04-27 10:10 63.19452 -12.89273 38183 ft 398 kts 291°
2026-04-27 10:10 63.21475 -13.00595 38186 ft 397 kts 291°
2026-04-27 10:11 63.23500 -13.11985 38184 ft 393 kts 291°
2026-04-27 10:11 63.25484 -13.23218 38175 ft 393 kts 291°
2026-04-27 10:12 63.27472 -13.34539 38176 ft 394 kts 291°
2026-04-27 10:12 63.29453 -13.45887 38176 ft 394 kts 290°
2026-04-27 10:13 63.31424 -13.57240 38174 ft 394 kts 290°
2026-04-27 10:13 63.33387 -13.68622 38165 ft 394 kts 290°
2026-04-27 10:14 63.35325 -13.79922 38166 ft 394 kts 290°
2026-04-27 10:14 63.37266 -13.91309 38188 ft 392 kts 289°
2026-04-27 10:15 63.39183 -14.02627 38153 ft 390 kts 289°
2026-04-27 10:15 63.41093 -14.13969 38161 ft 390 kts 289°
2026-04-27 10:16 63.42993 -14.25316 38142 ft 390 kts 289°
2026-04-27 10:16 63.44869 -14.36591 38141 ft 390 kts 289°
2026-04-27 10:17 63.46751 -14.47968 38142 ft 390 kts 289°
2026-04-27 10:17 63.48623 -14.59359 38139 ft 390 kts 289°
2026-04-27 10:18 63.50487 -14.70766 38146 ft 390 kts 289°
2026-04-27 10:18 63.52343 -14.82204 38134 ft 391 kts 288°
2026-04-27 10:19 63.54184 -14.93613 38127 ft 392 kts 288°
2026-04-27 10:19 63.56026 -15.05097 38124 ft 392 kts 288°
2026-04-27 10:20 63.57859 -15.16604 38132 ft 391 kts 287°
2026-04-27 10:20 63.59681 -15.28110 38119 ft 391 kts 287°
2026-04-27 10:21 63.61494 -15.39635 38118 ft 391 kts 287°
2026-04-27 10:21 63.63286 -15.51097 38115 ft 391 kts 287°
2026-04-27 10:22 63.65081 -15.62649 38110 ft 391 kts 287°
2026-04-27 10:22 63.66875 -15.74257 38109 ft 394 kts 286°
2026-04-27 10:23 63.68667 -15.85913 38104 ft 394 kts 286°
2026-04-27 10:23 63.70448 -15.97567 38103 ft 393 kts 286°
2026-04-27 10:24 63.72222 -16.09249 38109 ft 393 kts 286°
2026-04-27 10:24 63.73976 -16.20867 38117 ft 394 kts 286°
2026-04-27 10:25 63.75743 -16.32649 38095 ft 393 kts 286°
2026-04-27 10:25 63.77478 -16.44284 38100 ft 393 kts 285°
2026-04-27 10:26 63.79216 -16.56015 38107 ft 393 kts 285°
2026-04-27 10:26 63.80536 -16.67926 38116 ft 388 kts 273°
2026-04-27 10:27 63.81138 -16.80128 38093 ft 390 kts 275°
2026-04-27 10:27 63.81753 -16.92336 38097 ft 391 kts 275°
2026-04-27 10:28 63.82352 -17.04479 38093 ft 391 kts 275°
2026-04-27 10:28 63.82945 -17.16709 38080 ft 390 kts 275°
2026-04-27 10:29 63.83527 -17.28933 38082 ft 391 kts 275°
2026-04-27 10:29 63.84099 -17.41174 38078 ft 391 kts 274°
2026-04-27 10:30 63.84659 -17.53405 38075 ft 390 kts 274°
2026-04-27 10:30 63.85202 -17.65468 37628 ft 382 kts 274°
2026-04-27 10:31 63.85466 -17.71435 36909 ft 380 kts 274°
2026-04-27 10:31 63.85729 -17.77416 36082 ft 382 kts 273°
2026-04-27 10:31 63.85991 -17.83436 35502 ft 387 kts 273°
2026-04-27 10:31 63.86254 -17.89538 35069 ft 391 kts 273°
2026-04-27 10:32 63.86517 -17.95699 34657 ft 394 kts 272°
2026-04-27 10:32 63.86780 -18.01922 34263 ft 397 kts 272°
2026-04-27 10:32 63.87041 -18.08165 33797 ft 397 kts 272°
2026-04-27 10:32 63.87299 -18.14414 33334 ft 399 kts 272°
2026-04-27 10:33 63.87553 -18.20609 32869 ft 401 kts 272°
2026-04-27 10:33 63.87808 -18.26929 32404 ft 403 kts 271°
2026-04-27 10:33 63.88062 -18.33274 31947 ft 405 kts 271°
2026-04-27 10:33 63.88315 -18.39650 31488 ft 407 kts 271°
2026-04-27 10:34 63.88566 -18.46066 31049 ft 409 kts 271°
2026-04-27 10:34 63.88815 -18.52512 30613 ft 411 kts 271°
2026-04-27 10:34 63.89063 -18.58984 30177 ft 412 kts 271°
2026-04-27 10:34 63.89309 -18.65501 29708 ft 414 kts 271°
2026-04-27 10:35 63.89552 -18.71998 29232 ft 412 kts 271°
2026-04-27 10:35 63.89788 -18.78391 28712 ft 411 kts 271°
2026-04-27 10:35 63.90023 -18.84844 28208 ft 409 kts 271°
2026-04-27 10:35 63.90253 -18.91248 27741 ft 406 kts 271°
2026-04-27 10:36 63.90480 -18.97635 27295 ft 404 kts 271°
2026-04-27 10:36 63.90702 -19.03967 26819 ft 402 kts 271°
2026-04-27 10:36 63.90920 -19.10279 26383 ft 400 kts 270°
2026-04-27 10:36 63.91135 -19.16568 25933 ft 398 kts 270°
2026-04-27 10:37 63.91347 -19.22824 25507 ft 396 kts 270°
2026-04-27 10:37 63.91554 -19.29051 25081 ft 394 kts 270°
2026-04-27 10:37 63.91758 -19.35247 24643 ft 392 kts 270°
2026-04-27 10:37 63.91958 -19.41403 24220 ft 390 kts 270°
2026-04-27 10:38 63.92155 -19.47540 23812 ft 388 kts 270°
2026-04-27 10:38 63.92348 -19.53648 23360 ft 386 kts 270°
2026-04-27 10:38 63.92538 -19.59709 22871 ft 384 kts 269°
2026-04-27 10:38 63.92720 -19.65670 22401 ft 382 kts 269°
2026-04-27 10:39 63.92903 -19.71689 21928 ft 379 kts 269°
2026-04-27 10:39 63.93081 -19.77649 21446 ft 377 kts 269°
2026-04-27 10:39 63.93256 -19.83562 20994 ft 374 kts 269°
2026-04-27 10:39 63.93428 -19.89464 20584 ft 372 kts 269°
2026-04-27 10:40 63.93595 -19.95307 20146 ft 369 kts 268°
2026-04-27 10:40 63.93760 -20.01105 19703 ft 367 kts 268°
2026-04-27 10:40 63.93923 -20.06875 19303 ft 365 kts 268°
2026-04-27 10:40 63.94083 -20.12624 18979 ft 363 kts 268°
2026-04-27 10:41 63.94241 -20.18357 18659 ft 362 kts 268°
2026-04-27 10:41 63.94396 -20.24073 18346 ft 361 kts 268°
2026-04-27 10:41 63.94548 -20.29752 17990 ft 359 kts 268°
2026-04-27 10:41 63.94694 -20.35333 17626 ft 358 kts 268°
2026-04-27 10:42 63.94843 -20.40977 17286 ft 356 kts 268°
2026-04-27 10:42 63.94991 -20.46594 16918 ft 355 kts 268°
2026-04-27 10:42 63.95141 -20.52244 16569 ft 353 kts 268°
2026-04-27 10:42 63.95283 -20.57745 16221 ft 351 kts 268°
2026-04-27 10:43 63.95426 -20.63280 15885 ft 350 kts 268°
2026-04-27 10:43 63.95565 -20.68783 15542 ft 348 kts 268°
2026-04-27 10:43 63.95702 -20.74272 15203 ft 347 kts 268°
2026-04-27 10:43 63.95836 -20.79738 14848 ft 345 kts 268°
2026-04-27 10:44 63.95968 -20.85174 14546 ft 344 kts 268°
2026-04-27 10:44 63.96097 -20.90596 14185 ft 342 kts 268°
2026-04-27 10:44 63.96225 -20.96002 13885 ft 341 kts 268°
2026-04-27 10:44 63.96347 -21.01312 13569 ft 340 kts 268°
2026-04-27 10:45 63.96469 -21.06650 13227 ft 336 kts 268°
2026-04-27 10:45 63.96588 -21.11929 12845 ft 332 kts 267°
2026-04-27 10:45 63.96702 -21.17135 12474 ft 327 kts 267°
2026-04-27 10:45 63.96812 -21.22269 12119 ft 323 kts 267°
2026-04-27 10:46 63.96920 -21.27336 11783 ft 318 kts 267°
2026-04-27 10:46 63.97025 -21.32345 11423 ft 315 kts 267°
2026-04-27 10:46 63.97127 -21.37301 11089 ft 312 kts 266°
2026-04-27 10:46 63.97226 -21.42210 10760 ft 309 kts 266°
2026-04-27 10:47 63.97410 -21.47087 10377 ft 313 kts 276°
2026-04-27 10:47 63.98241 -21.51747 10003 ft 319 kts 288°
2026-04-27 10:47 63.99169 -21.56304 9637 ft 315 kts 287°
2026-04-27 10:47 64.00081 -21.60826 9251 ft 313 kts 287°
2026-04-27 10:48 64.00985 -21.65301 8867 ft 310 kts 288°
2026-04-27 10:48 64.01880 -21.69743 8521 ft 307 kts 288°
2026-04-27 10:48 64.02767 -21.74157 8137 ft 305 kts 288°
2026-04-27 10:48 64.03649 -21.78551 7750 ft 303 kts 288°
2026-04-27 10:49 64.04524 -21.82920 7351 ft 302 kts 288°
2026-04-27 10:49 64.05379 -21.87200 7077 ft 297 kts 288°
2026-04-27 10:49 64.06216 -21.91391 7030 ft 283 kts 288°
2026-04-27 10:49 64.07020 -21.95432 7003 ft 278 kts 288°
2026-04-27 10:50 64.07821 -21.99464 6677 ft 279 kts 288°
2026-04-27 10:50 64.08635 -22.03575 6297 ft 281 kts 288°
2026-04-27 10:50 64.09440 -22.07643 5901 ft 281 kts 288°
2026-04-27 10:50 64.10246 -22.11727 5500 ft 282 kts 289°
2026-04-27 10:51 64.11053 -22.15824 5115 ft 283 kts 289°
2026-04-27 10:51 64.11861 -22.19934 4733 ft 284 kts 289°
2026-04-27 10:51 64.12670 -22.24053 4330 ft 284 kts 289°
2026-04-27 10:51 64.13478 -22.28182 3925 ft 285 kts 290°
2026-04-27 10:52 64.14269 -22.32226 3517 ft 277 kts 290°
2026-04-27 10:52 64.15039 -22.36179 3129 ft 268 kts 290°
2026-04-27 10:52 64.15626 -22.40116 2697 ft 254 kts 272°
2026-04-27 10:52 64.15463 -22.43960 2422 ft 236 kts 243°
2026-04-27 10:53 64.14670 -22.47137 2225 ft 226 kts 233°
2026-04-27 10:53 64.13018 -22.53056 1850 ft 207 kts 233°
2026-04-27 10:53 64.12281 -22.55754 1846 ft 195 kts 233°
2026-04-27 10:54 64.11543 -22.58330 1823 ft 192 kts 224°
2026-04-27 10:54 64.10474 -22.59885 1768 ft 172 kts 197°
2026-04-27 10:54 64.09334 -22.60417 1845 ft 165 kts 185°
2026-04-27 10:54 64.08186 -22.60525 1836 ft 165 kts 180°
2026-04-27 10:55 64.07042 -22.60536 1714 ft 161 kts 180°
2026-04-27 10:55 64.05966 -22.60536 1532 ft 149 kts 180°
2026-04-27 10:55 64.05007 -22.60537 1375 ft 129 kts 180°
2026-04-27 10:55 64.04113 -22.60538 1196 ft 129 kts 180°
2026-04-27 10:56 64.03221 -22.60539 1037 ft 130 kts 179°
2026-04-27 10:56 64.02322 -22.60541 841 ft 128 kts 180°
2026-04-27 10:56 64.01430 -22.60541 664 ft 128 kts 180°
2026-04-27 10:56 64.00534 -22.60561 497 ft 129 kts 178°
2026-04-27 10:57 63.99642 -22.60544 328 ft 129 kts 178°
2026-04-27 10:57 63.98757 -22.60542 177 ft 120 kts 178°
2026-04-27 10:57 63.98152 -22.60540 174 ft 48 kts 180°
2026-04-27 10:57 63.97837 -22.60541 174 ft 45 kts 180°
2026-04-27 10:58 63.97638 -22.60539 176 ft 41 kts 179°
2026-04-27 10:58 63.97473 -22.60561 175 ft 16 kts 202°
2026-04-27 10:58 63.97441 -22.60760 171 ft 16 kts 283°
2026-04-27 10:58 63.97513 -22.60938 168 ft 17 kts 355°
2026-04-27 10:59 63.97628 -22.60941 171 ft 16 kts
2026-04-27 10:59 63.97770 -22.60940 172 ft 15 kts
2026-04-27 10:59 63.97841 -22.60939 172 ft 15 kts
2026-04-27 11:00 63.98063 -22.60941 170 ft 17 kts 359°
2026-04-27 11:00 63.98188 -22.60942 168 ft 19 kts 360°
2026-04-27 11:00 63.98324 -22.60942 168 ft 19 kts
2026-04-27 11:00 63.98461 -22.60941 169 ft 20 kts 360°
2026-04-27 11:01 63.98603 -22.60940 167 ft 21 kts
2026-04-27 11:01 63.98755 -22.60938 165 ft 23 kts 359°
2026-04-27 11:01 63.98859 -22.61074 164 ft 18 kts 303°
2026-04-27 11:01 63.98982 -22.61123 163 ft 19 kts
2026-04-27 11:02 63.99052 -22.61123 163 ft 0 kts 360°
2026-04-27 11:04 63.99061 -22.61123 162 ft 5 kts 360°
2026-04-27 11:04 63.99141 -22.61128 160 ft 17 kts 347°
2026-04-27 11:04 63.99174 -22.61347 155 ft 19 kts 270°
2026-04-27 11:04 63.99174 -22.61692 147 ft 25 kts 269°
2026-04-27 11:05 63.99173 -22.62117 143 ft 25 kts 270°
2026-04-27 11:05 63.99175 -22.62283 143 ft 4 kts 288°
2026-04-27 11:05 63.99193 -22.62301 143 ft 4 kts 348°
2026-04-27 11:05 63.99232 -22.62304 143 ft 7 kts
2026-04-27 11:06 63.99272 -22.62304 143 ft 2 kts
2026-04-27 11:06 63.99276 -22.62304 143 ft 0 kts